Regional Weather Roundup
Issued by NWS Newport/Morehead, NC

Current Version | Previous Version | Text Only | Print | Product List | Glossary Off
Versions: 1 2 3 4 5 6 7 8 9 10 11 12 13 14 15 16 17 18 19 20 21 22 23 24 25 26 27 28 29 30 31 32 33 34 35 36 37 38 39 40 41 42 43 44 45 46 47 48 49 50
000 ASUS42 KMHX 201925 RWRMHX WEATHER ROUNDUP FOR EASTERN NORTH CAROLINA NATIONAL WEATHER SERVICE NEWPORT/MOREHEAD CITY NC 200 PM EST TUE FEB 20 2018 NOTE: "FAIR" INDICATES FEW OR NO CLOUDS BELOW 12,000 FEET WITH NO SIGNIFICANT WEATHER AND/OR OBSTRUCTIONS TO VISIBILITY NCZ015>017-031-032-045>047-102-103-202000- NORTH COAST CITY SKY/WX TMP DP RH WIND PRES REMARKS EDENTON CLOUDY 76 66 71 CALM 30.41F ELIZABETH CITY FAIR 76 67 73 SW10 30.42F KITTY HAWK CLOUDY N/A N/A N/A CALM 30.43F MANTEO CLOUDY 68 64 87 SW7 30.45F $$ NCZ045>047-081-094-103-104-202000- CENTRAL COAST CITY SKY/WX TMP DP RH WIND PRES REMARKS FRISCO CLOUDY 72 66 81 S9 30.47F $$ NCZ095-097-098-100-101-202000- SOUTHERN COAST CITY SKY/WX TMP DP RH WIND PRES REMARKS BEAUFORT PTSUNNY 75 67 76 S10 30.45F CEDAR ISLAND NOT AVBL JACKSONVILLE PTSUNNY 76 64 66 S13 30.43F PINEY ISLAND NOT AVBL WILMINGTON FAIR 76 65 68 SE8 30.43F $$ NCZ011>013-027>030-043-044-078>080-089-090>093-098-202000- COASTAL PLAIN CITY SKY/WX TMP DP RH WIND PRES REMARKS AHOSKIE FAIR 71 66 85 CALM 30.41F CLINTON FAIR 80 63 55 S5 30.40F ELIZABETHTOWN NOT AVBL GOLDSBORO FAIR 80 63 57 S7 30.39F GREENVILLE FAIR 81 63 54 S12 30.40F HAVELOCK PTSUNNY 76 67 73 S14G22 30.45F KENANSVILLE PTSUNNY 81 63 54 S6 30.41F KINSTON FAIR 81 61 50 SW10 30.41 NEW BERN CLOUDY 76 64 66 S14 30.44F RICHLANDS FAIR 79 64 60 S14 30.42F ROCKY MOUNT PTSUNNY 72 64 76 VRB5 30.41F WASHINGTON PTSUNNY 81 61 50 S12 30.40F WHITEVILLE PTSUNNY 79 60 53 S13G18 30.41S $$ AMZ130-135-150-152-154-156-158-170-250-252-270-ANZ085-086-088-633-658-670-202000- MARINE OBSERVATIONS STATION/POSITION TIME TEMP WIND PRES WAVE SWELL AIR SEA DIR/SP/G HT/PER HT/PER (UTC) (F) (DEG/KT/KT) (MB) (FT/S) (FT/S) CHESAPEAKE LIGHT NOT AVBL 64 E VA BEACH 1850 55 51 190/ 8/ 8 1031.4 4/14 3/14 DUCK 1900 68 45 210/ 12/ 15 1029.9 2 E DUCK 1900 46 N/A 3/13 2/13 OREGON INLET 1900 65 53 170/ 10/ 12 1030.9 13E OREGON INLT 1848 47 N/A 5/12 5/12 HATTERAS CG 1900 69 57 170/ 8/ 10 1031.5 DIAMOND BUOY 1850 73 72 170/ 12/ 16 1032.3 4/12 3/12 CAPE LOOKOUT 1900 170/ 7/ 7 1031.7 BEAUFORT LAB 1900 68 55 180/ 6/ 8 1031.4 30 SE NEW RVR IN 1808 71 70 190/ 4/ 6 1031.6 30 SE NEW RVR IN 1900 71 N/A 3/ 6 2/13 27 SE WRIGHTSVLE 1808 71 69 170/ 6/ 10 1031.4 5 SE WRIGHTSVLE 1908 63 55 160/ 4/ 8 1030.6 225 S CAPE HAT 1850 72 75 100/ 12/ 14 1031.6 5/13 3/13 41 SE CHARLESTON 1850 72 69 160/ 6/ 8 1029.6 4/ 6 3/ 6 $$

USA.gov is the U.S. government's official web portal to all federal, state and local government web resources and services.